FW5815 Weather Reports


time (UTC)temp
C
wind
direction
speed
KPH
gust
KPH
rain 1hr
cm
rain 24hr
cm
rain mn
cm
humidity
%
barometer
mb
20260507100045 16 13 4.8 14.5 0.00 0.00 0.00 57 1017.0
20260507095517 17 42 1.6 8.0 0.00 0.00 0.00 58 1017.1
20260507095017 17 21 3.2 6.4 0.00 0.00 0.00 55 1016.9
20260507094535 17 22 1.6 6.4 0.00 0.00 0.00 56 1017.0
20260507094018 16 22 1.6 11.3 0.00 0.00 0.00 54 1016.9
20260507093517 16 0 3.2 12.9 0.00 0.00 0.00 56 1017.0
20260507093034 16 46 3.2 12.9 0.00 0.00 0.00 55 1017.0
20260507092515 16 22 0.0 6.4 0.00 0.00 0.00 55 1016.8
20260507092021 16 19 3.2 9.7 0.00 0.00 0.00 57 1016.8
20260507091535 17 17 1.6 11.3 0.00 0.00 0.00 57 1016.8
20260507091018 16 0 1.6 11.3 0.00 0.00 0.00 59 1016.8
20260507090515 15 19 3.2 11.3 0.00 0.00 0.00 60 1016.8
20260507090038 15 24 1.6 11.3 0.00 0.00 0.00 60 1016.7
20260507085516 15 24 1.6 6.4 0.00 0.00 0.00 61 1016.7
20260507085017 15 25 3.2 9.7 0.00 0.00 0.00 60 1016.7
20260507084539 15 28 1.6 9.7 0.00 0.00 0.00 61 1016.7
20260507084016 15 37 1.6 9.7 0.00 0.00 0.00 62 1016.7
20260507083516 14 21 3.2 8.0 0.00 0.00 0.00 64 1016.7
20260507083032 14 27 3.2 6.4 0.00 0.00 0.00 64 1016.7
20260507082518 14 30 3.2 8.0 0.00 0.00 0.00 65 1016.8
20260507082016 13 32 3.2 8.0 0.00 0.00 0.00 65 1016.7
20260507081531 14 14 1.6 11.3 0.00 0.00 0.00 67 1016.7
20260507081016 13 5 1.6 11.3 0.00 0.00 0.00 67 1016.7
20260507080518 13 9 1.6 8.0 0.00 0.00 0.00 68 1016.7
20260507080037 13 360 3.2 8.0 0.00 0.00 0.00 69 1016.7
20260507075515 13 360 3.2 8.0 0.00 0.00 0.00 69 1016.7
20260507075017 13 5 3.2 8.0 0.00 0.00 0.00 70 1016.5
20260507074534 13 5 3.2 8.0 0.00 0.00 0.00 70 1016.5
20260507074018 13 111 1.6 6.4 0.00 0.00 0.00 71 1016.6
20260507073514 12 21 1.6 6.4 0.00 0.00 0.00 72 1016.4
20260507073033 12 5 1.6 9.7 0.00 0.00 0.00 73 1016.4
20260507072517 12 360 3.2 9.7 0.00 0.00 0.00 72 1016.5
20260507072018 12 10 1.6 6.4 0.00 0.00 0.00 72 1016.5
20260507071536 12 9 1.6 8.0 0.00 0.00 0.00 74 1016.5
20260507071020 12 0 0.0 11.3 0.00 0.00 0.00 75 1016.4
20260507070517 11 12 3.2 11.3 0.00 0.00 0.00 75 1016.4
20260507070036 11 25 3.2 8.0 0.00 0.00 0.00 76 1016.4
20260507065515 11 5 3.2 9.7 0.00 0.00 0.00 77 1016.4
20260507065017 11 5 3.2 9.7 0.00 0.00 0.00 79 1016.3
20260507064600 10 5 1.6 9.7 0.00 0.00 0.00 81 1016.4
20260507064018 10 11 1.6 6.4 0.00 0.00 0.00 84 1016.4
20260507063516 10 13 1.6 6.4 0.00 0.00 0.00 86 1016.4
20260507063035 10 5 0.0 8.0 0.00 0.00 0.00 89 1016.3
20260507062521 9 5 0.0 8.0 0.00 0.00 0.00 90 1016.3
20260507062016 9 0 0.0 8.0 0.00 0.00 0.00 92 1016.3
20260507061533 8 0 0.0 3.2 0.00 0.00 0.00 93 1016.1
20260507061016 8 0 0.0 3.2 0.00 0.00 0.00 93 1016.3
20260507060515 8 0 0.0 3.2 0.00 0.00 0.00 94 1016.2
20260507060032 7 0 0.0 3.2 0.00 0.00 0.00 94 1016.1
20260507055518 7 0 0.0 1.6 0.00 0.00 0.00 94 1016.2
20260507055018 7 0 0.0 1.6 0.00 0.00 0.00 94 1016.1
20260507054533 7 0 0.0 1.6 0.00 0.00 0.00 94 1016.1
20260507054015 6 0 0.0 1.6 0.00 0.00 0.00 94 1016.0
20260507053515 6 0 0.0 0.0 0.00 0.00 0.00 94 1015.9
20260507053031 6 0 0.0 0.0 0.00 0.00 0.00 93 1015.9
20260507052515 5 0 0.0 0.0 0.00 0.00 0.00 94 1015.9
20260507052016 5 0 0.0 0.0 0.00 0.00 0.00 93 1015.9
20260507051534 5 0 0.0 0.0 0.00 0.00 0.00 93 1015.8
20260507051015 5 0 0.0 0.0 0.00 0.00 0.00 93 1015.8
20260507050517 5 0 0.0 0.0 0.00 0.00 0.00 93 1015.7
20260507050041 5 0 0.0 0.0 0.00 0.00 0.00 93 1015.6
20260507045516 5 0 0.0 0.0 0.00 0.00 0.00 93 1015.6
20260507045019 5 0 0.0 0.0 0.00 0.00 0.00 93 1015.4
20260507044532 5 0 0.0 0.0 0.00 0.00 0.00 93 1015.4
20260507044016 5 0 0.0 0.0 0.00 0.00 0.00 93 1015.4
20260507043515 5 0 0.0 0.0 0.00 0.00 0.00 93 1015.4
20260507043033 4 0 0.0 0.0 0.00 0.00 0.00 93 1015.3
20260507042515 4 0 0.0 0.0 0.00 0.00 0.00 92 1015.3
20260507042014 4 0 0.0 0.0 0.00 0.00 0.00 92 1015.3
20260507041533 4 0 0.0 0.0 0.00 0.00 0.00 92 1015.2
20260507041014 4 0 0.0 0.0 0.00 0.00 0.00 92 1015.2
20260507040516 4 0 0.0 0.0 0.00 0.00 0.00 92 1015.2
20260507040034 4 0 0.0 0.0 0.00 0.00 0.00 92 1015.1
20260507035515 4 0 0.0 0.0 0.00 0.00 0.00 92 1015.1
20260507035014 4 0 0.0 0.0 0.00 0.00 0.00 92 1015.2
20260507034535 4 0 0.0 0.0 0.00 0.00 0.00 92 1015.1
20260507034017 4 0 0.0 0.0 0.00 0.00 0.00 92 1015.0
20260507033517 4 0 0.0 0.0 0.00 0.00 0.00 92 1015.0
20260507033032 4 0 0.0 0.0 0.00 0.00 0.00 92 1015.1
20260507032514 4 0 0.0 0.0 0.00 0.00 0.00 92 1015.0
20260507032017 4 0 0.0 0.0 0.00 0.00 0.00 92 1015.0
20260507031534 4 0 0.0 0.0 0.00 0.00 0.00 92 1014.9
20260507031015 4 0 0.0 0.0 0.00 0.00 0.00 92 1014.8
20260507030519 4 0 0.0 0.0 0.00 0.00 0.00 92 1014.8
20260507030036 4 0 0.0 0.0 0.00 0.00 0.00 91 1014.9
20260507025516 5 0 0.0 0.0 0.00 0.00 0.00 91 1014.9
20260507025015 5 0 0.0 0.0 0.00 0.00 0.00 91 1014.7
20260507024533 5 0 0.0 0.0 0.00 0.00 0.00 91 1014.7
20260507024017 5 0 0.0 0.0 0.00 0.00 0.00 91 1014.7
20260507023515 5 0 0.0 0.0 0.00 0.00 0.00 91 1014.7
20260507023033 5 0 0.0 0.0 0.00 0.00 0.00 91 1014.9
20260507022516 5 0 0.0 0.0 0.00 0.00 0.00 91 1014.7
20260507022015 5 0 0.0 0.0 0.00 0.00 0.00 91 1014.6
20260507021537 5 0 0.0 0.0 0.00 0.00 0.00 91 1014.7
20260507021016 5 0 0.0 0.0 0.00 0.00 0.00 91 1014.7
20260507020516 5 0 0.0 0.0 0.00 0.00 0.00 91 1014.6
20260507020035 5 0 0.0 0.0 0.00 0.00 0.00 91 1014.6
20260507015520 5 0 0.0 0.0 0.00 0.00 0.00 91 1014.5
20260507015015 5 0 0.0 0.0 0.00 0.00 0.00 91 1014.5
20260507014538 5 0 0.0 0.0 0.00 0.00 0.00 91 1014.4
20260507014016 5 0 0.0 0.0 0.00 0.00 0.00 91 1014.3
20260507013516 5 0 0.0 1.6 0.00 0.00 0.00 91 1014.5
20260507013031 5 0 0.0 1.6 0.00 0.00 0.00 90 1014.5
20260507012517 5 0 0.0 0.0 0.00 0.00 0.00 90 1014.4
20260507012018 5 0 0.0 0.0 0.00 0.00 0.00 90 1014.4
20260507011537 5 0 0.0 1.6 0.00 0.00 0.00 90 1014.4
20260507011015 5 0 0.0 1.6 0.00 0.00 0.00 90 1014.4
20260507010515 5 0 0.0 1.6 0.00 0.00 0.00 90 1014.3
20260507010048 6 0 0.0 1.6 0.00 0.00 0.00 90 1014.3
20260507005516 6 0 0.0 1.6 0.00 0.00 0.00 90 1014.4
20260507005017 6 0 0.0 1.6 0.00 0.00 0.00 90 1014.3
20260507004535 6 0 0.0 1.6 0.00 0.00 0.00 90 1014.3
20260507004016 6 0 0.0 3.2 0.00 0.00 0.00 90 1014.3
20260507003515 6 0 0.0 3.2 0.00 0.00 0.00 90 1014.3
20260507003032 6 0 0.0 1.6 0.00 0.00 0.00 90 1014.3
20260507002514 6 0 0.0 1.6 0.00 0.00 0.00 90 1014.3
20260507002021 6 0 0.0 3.2 0.00 0.00 0.00 89 1014.3
20260507001533 6 0 0.0 3.2 0.00 0.00 0.00 89 1014.2
20260507001014 6 360 0.0 1.6 0.00 0.00 0.00 89 1014.2
20260507000518 6 0 0.0 3.2 0.00 0.00 0.00 89 1014.3
20260507000034 7 0 0.0 3.2 0.00 0.00 0.00 89 1014.2
20260506235517 7 0 0.0 4.8 0.00 0.00 0.00 89 1014.2
20260506235014 7 0 0.0 4.8 0.00 0.00 0.00 89 1014.1
20260506234532 7 360 0.0 4.8 0.00 0.00 0.00 88 1014.2
20260506234016 7 0 0.0 4.8 0.00 0.00 0.00 88 1014.1
20260506233521 7 0 0.0 3.2 0.00 0.00 0.00 88 1014.1
20260506233034 7 0 0.0 4.8 0.00 0.00 0.00 88 1014.1
20260506232515 7 360 0.0 4.8 0.00 0.00 0.00 88 1014.0
20260506232014 7 0 0.0 3.2 0.00 0.00 0.00 87 1014.0
20260506231533 7 0 0.0 4.8 0.00 0.00 0.00 87 1014.1
20260506231017 7 0 0.0 6.4 0.00 0.00 0.00 87 1014.0
20260506230515 7 360 1.6 6.4 0.00 0.00 0.00 87 1014.0
20260506230041 7 360 3.2 6.4 0.00 0.00 0.00 86 1014.0
20260506225515 7 360 1.6 6.4 0.00 0.00 0.00 86 1013.9
20260506225015 7 360 1.6 6.4 0.00 0.00 0.00 86 1014.0
20260506224537 8 0 1.6 6.4 0.00 0.00 0.00 85 1014.0
20260506224017 8 360 1.6 6.4 0.00 0.00 0.00 85 1013.9
20260506223515 8 360 1.6 4.8 0.00 0.00 0.00 84 1013.9
20260506223032 8 360 1.6 6.4 0.00 0.00 0.00 84 1013.8
20260506222515 8 0 1.6 6.4 0.00 0.00 0.00 84 1013.9
20260506222018 8 0 0.0 6.4 0.00 0.00 0.00 83 1013.8
20260506221532 8 0 1.6 6.4 0.00 0.00 0.00 83 1013.8
20260506221014 8 360 1.6 6.4 0.00 0.00 0.00 83 1013.8
20260506220517 8 360 1.6 6.4 0.00 0.00 0.00 82 1013.6
20260506220038 8 360 1.6 6.4 0.00 0.00 0.00 82 1013.7
20260506215519 8 360 1.6 6.4 0.00 0.00 0.00 82 1013.6
20260506215016 8 360 0.0 4.8 0.00 0.00 0.00 81 1013.6
20260506214536 9 0 0.0 4.8 0.00 0.00 0.00 80 1013.6
20260506214017 9 0 0.0 6.4 0.00 0.00 0.00 80 1013.6
20260506213517 9 360 1.6 8.0 0.00 0.00 0.00 79 1013.5
20260506213038 10 360 1.6 8.0 0.00 0.00 0.00 79 1013.5
20260506212515 10 5 1.6 6.4 0.00 0.00 0.00 78 1013.4
20260506212020 10 5 0.0 6.4 0.00 0.00 0.00 78 1013.4
20260506211534 10 0 1.6 6.4 0.00 0.00 0.00 76 1013.3
20260506211016 10 5 0.0 6.4 0.00 0.00 0.00 75 1013.3
20260506210513 10 0 0.0 6.4 0.00 0.00 0.00 74 1013.2
20260506210035 10 9 1.6 8.0 0.00 0.00 0.00 73 1013.4
20260506205514 10 5 1.6 8.0 0.00 0.00 0.00 73 1013.2
20260506205015 11 360 3.2 8.0 0.00 0.00 0.00 73 1013.2
20260506204536 11 360 3.2 9.7 0.00 0.00 0.00 73 1013.2
20260506204015 11 360 3.2 9.7 0.00 0.00 0.00 72 1013.1
20260506203515 11 352 3.2 9.7 0.00 0.00 0.00 72 1013.2
20260506203033 11 352 3.2 9.7 0.00 0.00 0.00 72 1013.0
20260506202517 11 352 3.2 9.7 0.00 0.00 0.00 72 1013.0
20260506202016 11 352 3.2 12.9 0.00 0.00 0.00 72 1013.0
20260506201538 11 360 1.6 12.9 0.00 0.00 0.00 72 1013.0
20260506201015 11 5 3.2 6.4 0.00 0.00 0.00 72 1012.9
20260506200515 11 5 1.6 8.0 0.00 0.00 0.00 72 1012.9
20260506200032 11 5 3.2 8.0 0.00 0.00 0.00 72 1012.8
20260506195516 11 5 3.2 9.7 0.00 0.00 0.00 72 1012.7
20260506195015 11 5 3.2 9.7 0.00 0.00 0.00 72 1012.6
20260506194532 12 5 1.6 6.4 0.00 0.00 0.00 72 1012.5
20260506194017 12 5 3.2 6.4 0.00 0.00 0.00 71 1012.4
20260506193515 12 5 1.6 8.0 0.00 0.00 0.00 71 1012.4
20260506193031 12 360 1.6 8.0 0.00 0.00 0.00 71 1012.3
20260506192515 12 360 1.6 6.4 0.00 0.00 0.00 71 1012.2
20260506192019 12 360 3.2 6.4 0.00 0.00 0.00 70 1012.1
20260506191533 12 0 1.6 9.7 0.00 0.00 0.00 69 1012.1
20260506191018 12 5 1.6 9.7 0.00 0.00 0.00 69 1012.0
20260506190516 12 5 1.6 9.7 0.00 0.00 0.00 69 1012.0
20260506190032 12 0 0.0 6.4 0.00 0.00 0.00 69 1011.9
20260506185515 12 360 1.6 8.0 0.00 0.00 0.00 68 1011.9
20260506185017 12 360 1.6 9.7 0.00 0.00 0.00 68 1011.8
20260506184533 12 352 3.2 9.7 0.00 0.00 0.00 68 1011.8
20260506184015 12 352 3.2 14.5 0.00 0.00 0.00 67 1011.8
20260506183518 12 93 3.2 14.5 0.00 0.00 0.00 67 1011.7
20260506183034 12 97 3.2 14.5 0.00 0.00 0.00 67 1011.6
20260506182515 12 345 4.8 14.5 0.00 0.00 0.00 67 1011.5
20260506182014 12 30 3.2 11.3 0.00 0.00 0.00 67 1011.5
20260506181532 12 16 3.2 8.0 0.00 0.00 0.00 66 1011.5
20260506181016 12 16 3.2 8.0 0.00 0.00 0.00 66 1011.5
20260506180516 12 19 1.6 8.0 0.00 0.00 0.00 66 1011.4
20260506180038 13 15 3.2 9.7 0.00 0.00 0.00 65 1011.3
20260506175516 13 18 3.2 9.7 0.00 0.00 0.00 64 1011.3
20260506175017 13 24 3.2 9.7 0.00 0.00 0.00 63 1011.2
20260506174536 13 5 1.6 6.4 0.00 0.00 0.00 62 1011.2
20260506174016 13 5 1.6 6.4 0.00 0.00 0.00 61 1011.0
20260506173515 13 5 1.6 9.7 0.00 0.00 0.00 60 1011.0
20260506173031 13 360 3.2 12.9 0.00 0.00 0.00 59 1011.0
20260506172515 13 69 3.2 12.9 0.00 0.00 0.00 59 1011.0
20260506172017 13 21 3.2 12.9 0.00 0.00 0.00 59 1011.0
20260506171545 13 360 3.2 12.9 0.00 0.00 0.00 59 1010.9
20260506171017 13 0 4.8 12.9 0.00 0.00 0.00 59 1010.8
20260506170517 13 5 4.8 11.3 0.00 0.00 0.00 59 1010.8
20260506170045 13 5 3.2 9.7 0.00 0.00 0.00 59 1010.8
20260506165520 13 5 3.2 12.9 0.00 0.00 0.00 57 1010.9
20260506165019 13 5 3.2 12.9 0.00 0.00 0.00 57 1010.8
20260506164539 13 5 4.8 12.9 0.00 0.00 0.00 56 1010.8
20260506164019 13 78 1.6 9.7 0.00 0.00 0.00 57 1010.9
20260506163518 14 83 1.6 9.7 0.00 0.00 0.00 55 1010.8
20260506163038 14 84 1.6 8.0 0.00 0.00 0.00 57 1010.8
20260506162516 14 80 1.6 6.4 0.00 0.00 0.00 57 1010.9
20260506162018 14 82 3.2 6.4 0.00 0.00 0.00 58 1010.7
20260506161542 14 63 1.6 9.7 0.00 0.00 0.00 57 1010.8
20260506161017 15 34 1.6 12.9 0.00 0.00 0.00 56 1010.8
20260506160518 15 0 3.2 12.9 0.00 0.00 0.00 56 1010.7
20260506160039 15 100 3.2 12.9 0.00 0.00 0.00 54 1010.7
20260506155515 15 114 3.2 12.9 0.00 0.00 0.00 56 1010.7
20260506155016 15 152 1.6 12.9 0.00 0.00 0.00 56 1010.7
20260506154535 15 88 3.2 12.9 0.00 0.00 0.00 53 1010.7
20260506154016 15 343 1.6 14.5 0.00 0.00 0.00 52 1010.7
20260506153517 15 40 3.2 14.5 0.00 0.00 0.00 52 1010.6
20260506153031 15 78 4.8 12.9 0.00 0.00 0.00 52 1010.7
20260506152520 15 101 1.6 9.7 0.00 0.00 0.00 54 1010.6
20260506152017 16 105 3.2 12.9 0.00 0.00 0.00 51 1010.5
20260506151541 16 54 3.2 14.5 0.00 0.00 0.00 50 1010.6
20260506151017 16 67 4.8 14.5 0.00 0.00 0.00 49 1010.5
20260506150518 16 323 3.2 16.1 0.00 0.00 0.00 49 1010.5
20260506150039 16 5 4.8 16.1 0.00 0.00 0.00 47 1010.5
20260506145518 15 349 8.0 20.9 0.00 0.00 0.00 46 1010.4
20260506145016 16 348 6.4 20.9 0.00 0.00 0.00 47 1010.3
20260506144550 16 98 6.4 20.9 0.00 0.00 0.00 46 1010.5
20260506144018 16 134 4.8 16.1 0.00 0.00 0.00 47 1010.5
20260506143517 15 98 4.8 16.1 0.00 0.00 0.00 47 1010.5
20260506143032 15 46 6.4 17.7 0.00 0.00 0.00 46 1010.6
20260506142519 15 127 6.4 17.7 0.00 0.00 0.00 47 1010.5
20260506142016 15 90 4.8 14.5 0.00 0.00 0.00 48 1010.5
20260506141534 15 24 4.8 14.5 0.00 0.00 0.00 49 1010.5
20260506141014 15 112 4.8 12.9 0.00 0.00 0.00 50 1010.6
20260506140516 15 17 3.2 14.5 0.00 0.00 0.00 50 1010.7
20260506140035 15 352 6.4 25.7 0.00 0.00 0.00 49 1010.6
20260506135517 15 326 9.7 25.7 0.00 0.00 0.00 49 1010.5
20260506135016 15 82 8.0 19.3 0.00 0.00 0.00 47 1010.5
20260506134533 15 351 8.0 17.7 0.00 0.00 0.00 48 1010.4
20260506134014 15 352 6.4 17.7 0.00 0.00 0.00 48 1010.3
20260506133515 16 352 4.8 16.1 0.00 0.00 0.00 50 1010.4
20260506133031 16 107 4.8 16.1 0.00 0.00 0.00 48 1010.4
20260506132516 16 82 4.8 14.5 0.00 0.00 0.00 50 1010.4
20260506132017 16 360 6.4 22.5 0.00 0.00 0.00 50 1010.3
20260506131542 16 5 6.4 22.5 0.00 0.00 0.00 48 1010.3
20260506131016 16 101 6.4 19.3 0.00 0.00 0.00 47 1010.3
20260506130517 16 71 4.8 22.5 0.00 0.00 0.00 49 1010.2
20260506130034 16 96 9.7 22.5 0.00 0.00 0.00 48 1010.2
20260506125515 16 115 6.4 20.9 0.00 0.00 0.00 49 1010.2
20260506125016 15 346 6.4 17.7 0.00 0.00 0.00 52 1010.2
20260506124535 15 38 4.8 16.1 0.00 0.00 0.00 53 1010.2
20260506124016 15 9 6.4 16.1 0.00 0.00 0.00 53 1010.3
20260506123515 15 360 6.4 16.1 0.00 0.00 0.00 55 1010.2
20260506123032 15 5 4.8 16.1 0.00 0.00 0.00 54 1010.1
20260506122514 15 111 4.8 14.5 0.00 0.00 0.00 55 1010.2
20260506122019 15 350 6.4 20.9 0.00 0.00 0.00 54 1010.2
20260506121530 15 0 3.2 20.9 0.00 0.00 0.00 58 1010.2
20260506121014 15 347 6.4 20.9 0.00 0.00 0.00 58 1010.2
20260506120517 16 15 6.4 17.7 0.00 0.00 0.00 57 1010.1
20260506120032 16 28 4.8 16.1 0.00 0.00 0.00 55 1010.1
20260506115516 15 5 4.8 12.9 0.00 0.00 0.00 58 1010.1
20260506115013 15 25 4.8 14.5 0.00 0.00 0.00 59 1010.0
20260506114538 15 360 4.8 17.7 0.00 0.00 0.00 58 1010.1
20260506114015 15 5 3.2 17.7 0.00 0.00 0.00 56 1010.1
20260506113519 15 352 6.4 17.7 0.00 0.00 0.00 54 1010.2
20260506113032 15 5 6.4 16.1 0.00 0.00 0.00 57 1010.1
20260506112519 15 26 4.8 16.1 0.00 0.00 0.00 58 1010.1
20260506112014 15 360 4.8 17.7 0.00 0.00 0.00 61 1010.1
20260506111532 14 5 4.8 17.7 0.00 0.00 0.00 62 1010.1
20260506111015 15 345 6.4 17.7 0.00 0.00 0.00 62 1010.2
20260506110519 15 24 4.8 12.9 0.00 0.00 0.00 66 1010.1
20260506110034 15 31 4.8 16.1 0.00 0.00 0.00 66 1010.1
20260506105519 14 352 4.8 17.7 0.00 0.00 0.00 68 1010.0
20260506105014 14 14 6.4 17.7 0.00 0.00 0.00 68 1010.0
20260506104534 14 348 4.8 12.9 0.00 0.00 0.00 67 1010.0
20260506104016 14 5 4.8 12.9 0.00 0.00 0.00 67 1010.0
20260506103517 14 360 4.8 12.9 0.00 0.00 0.00 67 1010.0
20260506103034 14 352 3.2 8.0 0.00 0.00 0.00 68 1010.1
20260506102515 14 352 3.2 12.9 0.00 0.00 0.00 68 1010.0
20260506102016 14 22 3.2 14.5 0.00 0.00 0.00 67 1010.0
20260506101533 14 360 4.8 17.7 0.00 0.00 0.00 66 1010.0
20260506101015 14 352 4.8 19.3 0.00 0.00 0.00 65 1009.9
20260506100515 15 5 4.8 19.3 0.00 0.00 0.00 62 1009.9